Air Force Academy, CO

10:04 AM MDT on March 24, 2017 (GMT -0600)
Usaf Academy

Weather History for KAFF - February, 2014

Change the Weather History Date:

Friday, February 7, 2014

  Actual Average Record
Temperature  
Mean Temperature 18 °F -  
Max Temperature 41 °F 40 °F 70 °F (2015)
Min Temperature -4 °F 18 °F -11 °F (2003)
Degree Days  
Heating Degree Days 46    
Moisture  
Dew Point 7 °F    
Average Humidity 53    
Maximum Humidity 77    
Minimum Humidity 26    
Precipitation  
Precipitation 0.00 in - - ()
Sea Level Pressure  
Sea Level Pressure 29.95 in    
Wind  
Wind Speed 10 mph (NNW)    
Max Wind Speed 14 mph    
Max Gust Speed 21 mph    
Visibility 10 miles    
Events      
Averages and records for this station are not official NWS values.
T = Trace of Precipitation, MM = Missing Value Source: NWS Daily Summary

Daily Weather History Graph

Daily Weather History Graph

Search for Another Location

Airport or City:

Trip Planner

Search our weather history database for the weather conditions in past years. The results will help you decide how hot, cold, wet, or windy it might be!

Date:

Astronomy

Feb. 07, 2014 Rise Set
Actual Time 6:59 AM MST 5:27 PM MST
Civil Twilight 6:31 AM MST 5:55 PM MST
Nautical Twilight 6:00 AM MST 6:26 PM MST
Astronomical Twilight 5:29 AM MST 6:58 PM MST
Moon 11:41 AM MST (2/7) 1:17 AM MST (2/7)
Length of Visible Light 11h 23m
Length of Day
10h 27m
First Quarter, 60% of the Moon is Illuminated
Feb 7
First Quarter
Feb 14
Full
Feb 22
Last Quarter
Mar 1
New
Mar 8
First Quarter

Hourly Weather History & Observations

Time (MST) Temp. Windchill Dew Point Humidity Pressure Visibility Wind Dir Wind Speed Gust Speed Precip Events Conditions
12:58 AM -4.2 °F -22.3 °F -9.8 °F 77% 30.12 in 10.0 mi North 11.5 mph - N/A   Clear
1:58 AM 1.6 °F -16.7 °F -4.9 °F 74% 30.07 in 10.0 mi North 13.8 mph - N/A   Clear
2:58 AM 2.1 °F -14.4 °F -3.6 °F 77% 30.05 in 10.0 mi NNE 11.5 mph - N/A   Clear
3:58 AM 8.8 °F -7.5 °F 2.7 °F 76% 30.01 in 10.0 mi North 13.8 mph - N/A   Clear
4:58 AM 10.6 °F -1.3 °F 3.4 °F 73% 30.03 in 10.0 mi NNW 8.1 mph - N/A   Clear
5:58 AM 12.4 °F -1.6 °F 4.3 °F 70% 30.03 in 10.0 mi North 11.5 mph - N/A   Clear
6:58 AM 15.6 °F 4.0 °F 6.1 °F 66% 30.03 in 10.0 mi North 9.2 mph - N/A   Clear
7:58 AM 19.9 °F 10.1 °F 7.9 °F 60% 30.03 in 10.0 mi NNW 8.1 mph - N/A   Clear
8:58 AM 27.1 °F 18.2 °F 10.9 °F 51% 30.03 in 10.0 mi North 9.2 mph - N/A   Clear
9:58 AM 33.6 °F 26.2 °F 11.5 °F 40% 30.01 in 10.0 mi South 9.2 mph - N/A   Clear
12:58 PM 39.2 °F 32.0 °F 15.8 °F 39% 29.91 in 10.0 mi South 11.5 mph - N/A   Clear
4:21 PM 41.0 °F 35.8 °F 8.6 °F 26% 29.74 in 10.0 mi NW 8.1 mph - N/A   Clear
4:58 PM 38.8 °F 31.2 °F 10.8 °F 32% 29.87 in 10.0 mi West 12.7 mph - N/A   Clear
5:58 PM 35.4 °F 31.5 °F 11.5 °F 37% 29.90 in 10.0 mi West 4.6 mph - N/A   Clear
6:58 PM 33.6 °F 25.0 °F 11.1 °F 39% 29.92 in 10.0 mi West 11.5 mph - N/A   Clear
7:58 PM 32.7 °F - 10.0 °F 39% 29.82 in 10.0 mi Variable 1.2 mph - N/A   Clear
8:58 PM 31.6 °F 25.1 °F 10.4 °F 41% 29.82 in 10.0 mi Variable 6.9 mph - N/A   Clear
9:58 PM 32.5 °F 26.2 °F 11.8 °F 42% 29.83 in 10.0 mi NW 6.9 mph 20.7 mph N/A   Clear
10:58 PM 26.6 °F 20.0 °F 11.1 °F 52% 29.85 in 10.0 mi North 5.8 mph - N/A   Clear
11:58 PM 28.2 °F 23.1 °F 9.7 °F 46% 29.87 in 10.0 mi WSW 4.6 mph - N/A   Clear